Location: Marse
(42.1502°N, 110.9866°W)
Time: 19:18:07
(UTC+00:00)

ITUPSAT 1 - Pass Details

Date: 08 July 2022
Orbit: 701 x 711 km, 98.6° (Epoch: 08 August)

Event Time Altitude Azimuth Distance (km) Brightness Sun altitude
Rises 04:36:47 0° 4° (N) 3,113 ? -14.1°
Reaches altitude 10° 04:39:12 10° 356° (N) 2,191 ? -14.4°
Maximum altitude 04:43:30 34° 292° (WNW) 1,159 ? -14.9°
Drops below altitude 10° 04:47:48 10° 228° (SW) 2,181 ? -15.4°
Sets 04:50:13 0° 219° (SW) 3,097 ? -15.7°
